User: anonymous   Login
Location: Unspecified
(0.0000°N, 0.0000°E)
Time: 21:27:06
(UTC+00:00)
Language:

In-Cosmos 22 - Orbit

View from above orbital plane
View from above orbital plane
View from above satellite
View from above satellite

Ground track
Ground track

The orbit data is extracted from the following two-line orbital elements,

1 12645U 81075A   21066.14945609  .00000129  00000-0  55665-4 0  9995
2 12645  81.2186 316.4081 0063445 340.0180  19.8511 14.18389289 46982
Epoch (UTC): 07 March 2021 03:35:13
Eccentricity: 0.0063445
inclination: 81.2186°
perigee height: 785 km
apogee height: 876 km
right ascension of ascending node: 316.4081°
argument of perigee: 340.0180°
revolutions per day: 14.18389289
mean anomaly at epoch: 19.8511°
orbit number at epoch: 4698

The dashed part of the orbit path shows where the satellite is in the earth's shadow,  

DLR